Regional Weather Roundup
Issued by NWS

Home | Current Version | Previous Version | Text Only | Print | Product List | Glossary On
Versions: 1 2 3 4 5 6 7 8 9 10 11 12 13 14 15 16 17 18 19 20 21 22 23 24 25 26 27 28 29 30 31 32 33 34 35 36 37 38 39 40 41 42 43 44 45 46 47 48 49 50
000
ASUS43 KDTX 241601
RWRMI
MICHIGAN HOURLY REGIONAL WEATHER ROUNDUP
NATIONAL WEATHER SERVICE DETROIT/PONTIAC MI
1200 PM EDT SAT SEP 24 2016

NOTE: "FAIR" INDICATES FEW OR NO CLOUDS BELOW 12,000 FEET WITH NO
SIGNIFICANT WEATHER AND/OR OBSTRUCTION TO VISIBILITY.

MIZ047>049-052>055-059>063-066>070-074>076-081>083-241700-
SOUTHEAST LOWER MICHIGAN

CITY           SKY/WX    TMP DP  RH WIND       PRES   REMARKS
ADRIAN         PTSUNNY   67  54  63 E13       30.26S
ALMA           CLOUDY    63  51  64 NE7G18    30.30F
ANN ARBOR      MOSUNNY   64  53  67 NE7       30.26S
BAD AXE        SUNNY     61  45  55 NE7       30.31F
CARO           SUNNY     63  49  58 E7        30.30S
DETROIT CITY   CLOUDY    63  53  70 NE8       30.28R
DETROIT        CLOUDY    64  53  67 NE9       30.27S
FLINT          CLOUDY    62  52  69 E10       30.29S
GROSSE ILE     CLOUDY    66  51  57 NE13      30.25S
HILLSDALE      CLOUDY    64  52  63 E5        30.25S
HOWELL         CLOUDY    62  51  67 E8        30.28R

CITY           SKY/WX    TMP DP  RH WIND       PRES   REMARKS
JACKSON        MOSUNNY   65  55  70 E8        30.26S
LAMBERTVILLE   CLOUDY    68  55  63 NE6       30.25S
LANSING        MOSUNNY   64  53  67 E10       30.29R
LAPEER         PTSUNNY   62  51  66 E9        30.30S
MASON          PTSUNNY   64  54  68 NE6       30.28R
MONROE         SUNNY     68  53  58 E10G20    30.25S
MT. CLEMENS    PTSUNNY   64  50  61 NE12      30.26S
PONTIAC        CLOUDY    62  51  67 E8        30.27S
PORT HOPE        N/A     61  48  62 E12       30.30F
PORT HURON     MOSUNNY   61  50  67 N8        30.29S
TRI CITIES     MOSUNNY   64  48  56 NE14      30.31S
MIDLAND        FAIR      64  49  57 E13       30.30S
TROY           CLOUDY    64  47  55 NE10      30.30S
SAGINAW HB     CLOUDY    64  46  52 NE6       30.29F
$$
MIZ043>046-050>051-056>058-064>065-071>073-077>080-241700-
SOUTHWEST LOWER MICHIGAN

CITY           SKY/WX    TMP DP  RH WIND       PRES   REMARKS
BATTLE CREEK   SUNNY     67  55  65 VRB7      30.25F
BENTON HARBOR  CLOUDY    66  57  72 E13       30.22F
BIG RAPIDS     MOSUNNY   63  51  67 SE12G17   30.30S
COLDWATER      CLOUDY    65  55  67 E8        30.25S
FREMONT        FAIR      60  49  66 E9        30.28S
HOLLAND        SUNNY     66  55  67 E12       30.25S
GRAND RAPIDS   PTSUNNY   64  51  62 E13       30.27S
IONIA          FAIR      61  50  68 NE14      30.27S
KALAMAZOO      CLOUDY    63  53  70 E7        30.25F
LUDINGTON      SUNNY     63  52  67 E9G17     30.27F
MARSHALL       SUNNY     66  54  64 NE6       30.25S
MUSKEGON       CLOUDY    64  51  62 E12       30.26S
SOUTH HAVEN    SUNNY     68  60  77 E7G16     30.23S
$$
MIZ016>042-241700-
NORTHERN LOWER MICHIGAN

CITY           SKY/WX    TMP DP  RH WIND       PRES   REMARKS
ALPENA         SUNNY     63  40  42 E10       30.33F
BEAVER ISLAND  CLOUDY    61  47  61 E7        30.31F
BELLAIRE       MOSUNNY   62  44  50 SE7       30.32S
CADILLAC       MOSUNNY   62  47  58 E10       30.30F
CHARLEVOIX     CLOUDY    61  44  53 SE8       30.34F
FRANKFORT      CLOUDY    63  48  59 SE9       30.29F
GAYLORD        SUNNY     60  41  49 SE12      30.32F
GRAYLING       SUNNY     62  44  52 E9        30.33S
HARBOR SPRINGS CLOUDY    62  45  53 E8        30.32F
HOUGHTON LAKE  SUNNY     61  44  53 E9        30.33S
MANISTEE       SUNNY     65  51  60 E10       30.28F
OSCODA         MOSUNNY   63  44  49 E9        30.32S
PELLSTON       MOSUNNY   62  42  47 E7        30.33F
ROGERS CITY    SUNNY     62  41  46 NE3       30.35S
TRAVERSE CITY  MOSUNNY   63  46  54 E7        30.29F
$$
MIZ007>008-015-241700-
EASTERN UPPER MICHIGAN

CITY           SKY/WX    TMP DP  RH WIND       PRES   REMARKS
KINROSS        SUNNY     60  43  53 VRB3      30.32F
MACKINAC ISLAN MOSUNNY   61  45  56 E5        30.32F
NEWBERRY       CLOUDY    61  48  62 S6        30.31S
S. S. MARIE    SUNNY     61  42  49 VRB3      30.32F
MUNISING         N/A     62  50  64 S8        30.30S
$$
MIZ004>006-011>014-085-241700-
CENTRAL UPPER MICHIGAN

CITY           SKY/WX    TMP DP  RH WIND       PRES   REMARKS
MANISTIQUE     CLOUDY    61  47  58 SE9       30.31S
ESCANABA       CLOUDY    62  47  57 SE12      30.29F
MENOMINEE      MOSUNNY   64  50  60 SE13      30.28F
SAWYER-GWINN   PTSUNNY   59  48  67 S12       30.30S
$$
MIZ001>003-009>011-084-241700-
WESTERN UPPER MICHIGAN

CITY           SKY/WX    TMP DP  RH WIND       PRES   REMARKS
IRON MOUNTAIN  MOSUNNY   63  47  55 SE13      30.27F
HOUGHTON       CLOUDY    60  51  72 S8        30.25F
COPPER HARBOR    N/A     62  51  67 SW8G20    30.26S
IRONWOOD       CLOUDY    63  55  75 SE13      30.20F
$$

ABBREVIATIONS USED IN REMARKS
   TC - TEMPERATURE IN CELSIUS
  WCI - WIND CHILL INDEX
   HX - HEAT INDEX
  VSB - VISIBILITY




USA.gov is the U.S. government's official web portal to all federal, state and local government web resources and services.